Tracking 19796 objects as of 19-Jul-2019
HD Live streaming from Space Station
objects crossing your sky now

COSMOS 447

Track COSMOS 447 now!
10-day predictions
COSMOS 447 is classified as:


NORAD ID: 5550
Int'l Code: 1971-086D
Perigee: 1,417.5 km
Apogee: 1,520.9 km
Inclination: 74.0 °
Period: 115.1 minutes
Semi major axis: 7840 km
RCS: 0.7637 m2 (medium)
Launch date: October 13, 1971
Source: Commonwealth of Independent States (former USSR) (CIS)
Launch site: PLESETSK MISSILE AND SPACE COMPLEX (PKMTR)
aabbcc
Your satellite tracking list
Your tracking list is empty




NASA's NSSDC Master Catalog

Two Line Element Set (TLE):
1  5550U 71086D   19199.64234459 +.00000008 +00000-0 +15423-3 0  9999
2  5550 074.0285 069.5269 0065981 164.0401 226.8339 12.50579473180460
Source of the keplerian elements: AFSPC